HOECHSTEN Weather Reports


Display with metric or nautical units.
time (UTC)temp
F
wind
direction
speed
MPH
gust
MPH
rain 1hr
in
rain 24hr
in
rain mn
in
humidity
%
barometer
mb
20260507150210 55 331 6.0 0.0 0.00 0.00 0.05 71 1012.2
20260507143212 55 246 10.0 0.0 0.00 0.00 0.05 72 1012.2
20260507140210 53 335 13.0 0.0 0.00 0.00 0.05 75 1012.2
20260507133210 55 326 11.0 0.0 0.00 0.00 0.05 73 1012.4
20260507130210 55 240 16.0 0.0 0.00 0.00 0.05 72 1012.1
20260507123210 53 245 12.0 0.0 0.00 0.00 0.05 72 1012.2
20260507120211 53 213 15.0 0.0 0.00 0.00 0.05 74 1012.2
20260507113210 50 341 9.0 0.0 0.00 0.00 0.05 70 1012.4
20260507110210 49 223 8.0 0.0 0.00 0.00 0.05 60 1012.5
20260507103216 48 215 10.0 0.0 0.00 0.00 0.05 54 1012.7
20260507100212 47 216 11.0 0.0 0.00 0.00 0.05 56 1012.6
20260507093210 47 239 11.0 0.0 0.00 0.00 0.05 57 1012.3
20260507090211 46 186 9.0 0.0 0.00 0.00 0.05 57 1012.2
20260507083212 46 195 10.0 0.0 0.00 0.00 0.05 58 1011.9
20260507080211 44 204 9.0 0.0 0.00 0.00 0.05 58 1011.8
20260507073212 44 180 11.0 0.0 0.00 0.00 0.05 58 1011.5
20260507070212 44 200 10.0 0.0 0.00 0.00 0.05 59 1011.2
20260507063211 44 190 15.0 0.0 0.00 0.00 0.05 59 1010.9
20260507060211 43 209 13.0 0.0 0.00 0.00 0.05 59 1010.7
20260507053211 43 252 17.0 0.0 0.00 0.00 0.04 59 1010.4
20260507050213 43 207 13.0 0.0 0.00 0.00 0.01 59 1009.9
20260507043211 43 202 19.0 0.0 0.00 0.00 0.00 59 1009.5
20260507040216 43 211 15.0 0.0 0.00 0.00 0.00 59 1009.3
20260507033211 43 203 18.0 0.0 0.00 0.00 0.00 59 1009.1
20260507030211 43 192 15.0 0.0 0.00 0.00 0.00 59 1009.0
20260507023211 43 211 15.0 0.0 0.00 0.00 0.00 59 1009.0
20260507020211 43 231 12.0 0.0 0.00 0.00 0.00 59 1009.0
20260507013212 43 240 11.0 0.0 0.00 0.00 0.00 59 1008.9
20260507010211 43 238 13.0 0.0 0.00 0.00 0.00 59 1008.8
20260507003209 44 202 14.0 0.0 0.00 0.00 0.00 59 1008.5
20260507000209 44 202 16.0 0.0 0.00 0.00 0.00 60 1008.4
20260506233209 44 199 10.0 0.0 0.00 0.00 0.00 60 1008.2
20260506230209 44 225 12.0 0.0 0.00 0.00 0.00 60 1008.3
20260506223209 44 200 10.0 0.0 0.00 0.00 0.00 60 1008.2
20260506213209 44 248 13.0 0.0 0.00 0.00 0.28 59 1008.0
20260506210210 45 198 13.0 0.0 0.00 0.00 0.28 60 1008.0
20260506203210 45 211 10.0 0.0 0.00 0.00 0.28 60 1007.7
20260506200210 45 196 13.0 0.0 0.00 0.00 0.28 60 1007.4
20260506193215 45 200 12.0 0.0 0.00 0.00 0.28 60 1007.1
20260506190211 45 258 15.0 0.0 0.00 0.00 0.28 60 1006.9
20260506183209 45 204 18.0 0.0 0.00 0.00 0.28 60 1006.3
20260506180216 45 244 17.0 0.0 0.00 0.00 0.28 61 1006.2
20260506173210 46 209 12.0 0.0 0.00 0.00 0.28 61 1005.8
20260506170215 46 243 16.0 0.0 0.00 0.00 0.28 61 1005.4
20260506163210 45 222 17.0 0.0 0.00 0.00 0.28 62 1005.1
20260506160210 45 188 23.0 0.0 0.00 0.00 0.28 63 1004.8
20260506153210 45 0 21.0 0.0 0.00 0.00 0.28 64 1004.7